Regional Weather Roundup
Issued by NWS Green Bay, WI

Home | Current Version | Previous Version | Text Only | Print | Product List | Glossary On
Versions: 1 2 3 4 5 6 7 8 9 10 11 12 13 14 15 16 17 18 19 20 21 22 23 24 25 26 27 28 29 30 31 32 33 34 35 36 37 38 39 40 41 42 43 44 45 46 47 48 49 50
000
ASUS43 KGRB 301512
RWRGRB

NORTH-CENTRAL AND NORTHEAST WISCONSIN REGIONAL WEATHER ROUNDUP
NATIONAL WEATHER SERVICE GREEN BAY WI
1000 AM CDT SUN AUG 30 2015

WIZ005-009-010>012-018-019-301600-
NORTH CENTRAL WISCONSIN

CITY           SKY/WX    TMP DP  RH WIND       PRES   REMARKS
IRONWOOD       SUNNY     68  63  83 SW13G18   29.95F
MANITOWISH WTR CLOUDY    63  63  99 SW10      30.04S
ARBOR VITAE    CLOUDY    63  61  92 SW6       30.04F
EAGLE RIVER    CLOUDY    63  60  91 SW10      30.05R
LAND O LAKES   MOSUNNY   68  61  76 SW7       30.04S
RHINELANDER    CLOUDY    62  59  90 SW6       30.07S
PHILLIPS       CLOUDY    62  61  96 S6        30.04S
ANTIGO         MOSUNNY   61  61 100 SW9       30.08S
TOMAHAWK       CLOUDY    61  60  97 CALM      30.07R
MERRILL        SUNNY     61  61 100 SW7       30.07S
$$

WIZ013-073-301600-
NORTHEAST WISCONSIN

CITY           SKY/WX    TMP DP  RH WIND       PRES   REMARKS
IRON MOUNTAIN  SUNNY     67  61  81 VRB3      30.02F
MARINETTE      SUNNY     64  59  82 W7        30.05S
OCONTO         SUNNY     65  65  97 SW3       30.06S
$$

WIZ017-030-035>037-045-301600-
CENTRAL WISCONSIN

CITY           SKY/WX    TMP DP  RH WIND       PRES   REMARKS
MEDFORD        CLOUDY    62  62  99 SW6       30.07R
WAUSAU         PTSUNNY   60  59  96 SW6       30.06S
MOSINEE        MOSUNNY   61  61 100 SW7       30.09R
MARSHFIELD     MOSUNNY   66  60  81 SW10      30.07S
WISC RAPIDS    SUNNY     67  60  78 SW8       30.09R
STEVENS POINT  SUNNY     62  59  88 SW6       30.08S
WAUPACA        CLOUDY    64  63  96 CALM      30.08S
SHAWANO        MOSUNNY   62  61  96 S3        30.07S
CLINTONVILLE   MOSUNNY   61  61 100 S5        30.07R
WAUTOMA        CLOUDY    63  63 100 SE5       30.09S FOG
$$

WIZ038-039-048-051-301600-
FOX VALLEY

CITY           SKY/WX    TMP DP  RH WIND       PRES   REMARKS
NWS GREEN BAY  MOSUNNY   64  62  93 S3        30.08R FOG
APPLETON       PTSUNNY   66  63  88 CALM      30.07S
OSHKOSH        PTSUNNY   65  62  90 SE6       30.08S FOG
FOND DU LAC    CLOUDY    65  62  90 CALM      30.09S FOG
$$

WIZ022-050-052-301600-
EAST CENTRAL WISCONSIN

CITY           SKY/WX    TMP DP  RH WIND       PRES   REMARKS
EPHRAIM        FAIR      66  62  87 CALM      30.05S
STURGEON BAY   SUNNY     64  61  88 SW5       30.09S
MANITOWOC      CLOUDY    63  62  97 MISG      30.09S FOG
SHEBOYGAN      CLOUDY    62  62 100 CALM      30.09S FOG
$$

LMZ563-521-522-541>543-301600-
LAKESHORE

STATION/POSITION TIME  TEMP    WIND        PRES    VSBY  WAVE
                       AIR SEA DIR/SP/G                  HT/PER
                 (UTC) (F)     (DEG/KT/KT) (MB)    (MI)  (FT/S)
SHEBOYGAN LKSHOR 1500   52     120/  2/  3 1019.2F
NORTHPORT PIER   1400   65     180/  3/  7 1017.6S
N MID LAKE BUOY  1450   63 65  210/ 10/ 10 1017.6R         1
S GREEN BAY BUOY 1500   61 62  210/  8/ 10 1019.4
SISTER BAY LKSHO 1419   69     180/  7/  8   N/A
CHAMBERS ISLAND  1400   61     180/  4/  8 1017.6S
$$


USA.gov is the U.S. government's official web portal to all federal, state and local government web resources and services.